Regional Weather Roundup
Issued by NWS

Home | Current Version | Previous Version | Graphics & Text | Print | Product List | Glossary On
Versions: 1 2 3 4 5 6 7 8 9 10 11 12 13 14 15 16 17 18 19 20 21 22 23 24 25 26 27 28 29 30 31 32 33 34 35 36 37 38 39 40 41 42 43 44 45 46 47 48 49 50
000
ASUS45 KTFX 192104
RWRMT
MONTANA HOURLY WEATHER ROUNDUP
NATIONAL WEATHER SERVICE GREAT FALLS MT
204 PM MST FRI DEC 19 2014

NOTE: "FAIR" INDICATES FEW OR NO CLOUDS BELOW 12000 FEET WITH NO
SIGNIFICANT WEATHER AND/OR OBSTRUCTIONS TO VISIBILITY.

* THESE STATIONS ARE NOT UNDER NWS QUALITY CONTROL. THEY DO NOT
   REPORT WEATHER SUCH AS PRECIPITATION OR FOG.

MTZ001>007-043-192200-
WEST OF THE DIVIDE
CITY           SKY/WX    TMP DP  RH WIND       PRES   REMARKS
KALISPELL      LGT RAIN  34  34 100 SE3       29.87S VSB 2
MISSOULA       LGT RAIN  34  28  79 W3        29.92F
BUTTE          PTSUNNY   36  27  70 NW3       29.89F
MULLAN PASS    SNOW      30  28  92 VRB3      29.83S VSB M1/4
* ESSEX        N/A       35  33  92 N/A        N/A
* LINCOLN      N/A       33  28  82 S3         N/A
* LOOKOUT PASS N/A       33  33 100 NE5        N/A   WCI  28
* POLSON       N/A       36  35  96 SE1        N/A
* RONAN APT    CLOUDY    34  32  92 N/A        N/A
* SEELEY LAKE  N/A       32  30  92 NE2        N/A
* THOMP F APT  CLOUDY    27  25  92 SE7G15     N/A   WCI  19
$$

MTZ008-052>055-192200-
SOUTHWEST MONTANA
CITY           SKY/WX    TMP DP  RH WIND       PRES   REMARKS
BOZEMAN        PTCLDY    37  25  62 CALM      29.90S
DILLON         CLOUDY    37  27  67 S3        29.91F
* W YELLOWSTON PTCLDY    29  26  89 S2G8       N/A
* THREE FORKS  PTCLDY    45  45 100 S9         N/A
* BOULDER HILL N/A       36  22  57 S19        N/A   WCI  25
* MONIDA PASS  N/A       25  25 100 SE17G24    N/A   WCI  12
* RAYNOLDS PAS N/A       30  16  56 S7G12      N/A   WCI  23
* WHITEHALL    N/A       43  30  60 SW13G20    N/A
* WISE RIVER   N/A       36  26  67 N2G7       N/A
$$

MTZ009>010-012-014-046-048-049-054-192200-
EAST SLOPES AND CENTRAL MONTANA
CITY           SKY/WX    TMP DP  RH WIND       PRES   REMARKS
CUT BANK       PTSUNNY   41  30  65 W6        29.74S
GREAT FALLS    PTSUNNY   48  28  46 SW17      29.77F
HELENA         PTSUNNY   37  27  67 NW5       29.87F WCI  33
* DEARBORN     N/A       46  26  46 SW10G19    N/A
* MONARCH      N/A       41  19  41 SW6        N/A
* PENDROY      N/A       39  29  67 NW6        N/A   WCI  35
* ROGERS PASS  N/A       34  27  76 SE8G16     N/A   WCI  27
* SWEET GRASS  N/A       29  25  85 S12        N/A   WCI  19
$$

MTZ011-013-016-021-035-040-045-047-050-051-192200-
NORTH CENTRAL MONTANA
CITY           SKY/WX    TMP DP  RH WIND       PRES   REMARKS
HAVRE          CLOUDY    32  27  82 E7        29.80F WCI  25
LEWISTOWN      CLOUDY    43  27  53 E6        29.81F
* N BAR RANCH  SUNNY     41  25  53 CALM      29.83F
* CHESTER      N/A       32  29  89 N/A        N/A
* DENTON       N/A       41  29  62 E3         N/A
* GEYSER       N/A       40  26  57 E4         N/A
* JUDITH GAP   N/A       41  24  51 SW16G21    N/A
* LOMA         N/A       38  31  76 NE7        N/A   WCI  33
$$

MTZ017>020-022>027-061-062-192200-
NORTHEAST MONTANA
CITY           SKY/WX    TMP DP  RH WIND       PRES   REMARKS
GLASGOW        SUNNY     37  27  67 E3        29.85F
GLENDIVE       SUNNY     43  27  53 S7        29.89F
JORDAN         PTCLDY    46  27  48 CALM      29.84F
SIDNEY         SUNNY     39  28  65 CALM      29.91S
WOLF POINT     SUNNY     39  28  65 CALM      29.88F
* BEAVER HILL  N/A       42  26  53 S10        N/A
* CIRCLE       N/A       44  32  63 S2         N/A
* LINDSAY DVD  N/A       43  27  53 W4         N/A
* NAVAJO       N/A       35  32  89 W1         N/A
* SACO         N/A       35  29  79 E4         N/A
$$

MTZ028>042-056>058-192200-
SOUTHCENTRAL AND SOUTHEAST MONTANA
CITY           SKY/WX    TMP DP  RH WIND       PRES   REMARKS
BAKER          SUNNY     43  25  49 W8        29.89F
BILLINGS       PTSUNNY   39  23  53 S8        29.87F WCI  33
LIVINGSTON     PTSUNNY   48  25  41 SW35G47   29.83F
MILES CITY     PTCLDY    45  25  45 W8        29.88F
* LAUREL APT   PTCLDY    45  18  34 S9         N/A
* ROUNDUP APT  PTSUNNY   45  19  35 N/A        N/A
* ALZADA       N/A       42  23  47 W2         N/A
* HYSHAM       N/A       39  18  43 W7         N/A   WCI  34
* LAME DEER    N/A       43  19  38 W8         N/A
* REED POINT   N/A       41  24  51 NE4        N/A
* ROSCOE HILL  N/A       40  14  35 SE4G10     N/A
$$

REGIONAL REPORTS...DAKOTAS
CITY           SKY/WX    TMP DP  RH WIND       PRES   REMARKS
WILLISTON      FOG       27  25  92 E3        29.90F
DICKINSON      SUNNY     45  28  51 W9        29.86S
BEACH          SUNNY     41  28  60 SW9       29.88F
CROSBY         FOG       25  25 100 CALM      29.91S
WATFORD CITY   SUNNY     36  32  85 W6        29.88S WCI  31
BISMARCK       PTCLDY    37  28  70 CALM      29.92S
GRAND FORKS    FOG       28  27  96 S9        30.00F VSB 1    WCI  19
FARGO          FOG       30  27  89 S10       30.02S WCI  21
BUFFALO SD     PTCLDY    45  23  42 W7        29.83S
RAPID CITY     CLOUDY    45  27  49 E3        29.94R
$$

REGIONAL REPORTS...WYOMING/IDAHO/WASHINGTON
CITY           SKY/WX    TMP DP  RH WIND       PRES   REMARKS
GILLETTE       PTSUNNY   37  21  52 SW8       29.91S WCI  31
SHERIDAN       PTCLDY    45  23  42 SE5       29.88F
CODY           PTSUNNY   43  21  42 W18G29    29.88F
YELLOWSTONE LA PTCLDY    27  21  78 VRB3      30.03F
SALMON         CLOUDY    36  25  64 N5        29.96S WCI  32
MULLAN PASS    SNOW      30  28  92 VRB3      29.83S VSB M1/4
SAND POINT     N/A       37  37 100 CALM      29.89S
SPOKANE        CLOUDY    41  37  86 SW16G23   29.89R

$$



USA.gov is the U.S. government's official web portal to all federal, state and local government web resources and services.